Simultaneous Nadir Overpasses (SNOs) Predictions

Prediction of SNOs between NOAA-19 and TERRA Satellite Orbit:

Table of predicted SNOs for the next 14.0 days since TLE Epoch: 3/20/2021
Index Date (NOAA-19) Time (NOAA-19) Lat,Lon (NOAA-19) SZA (NOAA-19 ) Date (TERRA) Time (TERRA) Lat,Lon (TERRA) SZA (TERRA ) Distance(km) Time Diff (sec)
1 03/20/2021 04:06:27 80.09, 150.94 81.53 03/20/2021 04:05:45 80.09, 150.77 81.49 3.47 42
2 03/22/2021 09:39:44 -80.10,-112.41 99.33 03/22/2021 09:39:27 -80.11,-112.47 99.34 1.53 17
3 03/24/2021 15:12:52 80.12, -15.91 79.81 03/24/2021 15:13:09 80.10, -15.99 79.79 2.97 17
4 03/26/2021 20:46:09 -80.12, 80.86 101.04 03/26/2021 20:46:51 -80.12, 80.78 101.04 1.67 42
5 03/26/2021 21:37:03 80.10,-111.54 78.96 03/26/2021 21:36:17 80.12,-111.60 78.95 2.54 46
6 03/29/2021 02:19:23 80.28, 175.28 78.04 03/29/2021 02:20:32 80.14, 177.49 78.14 44.54 69
7 03/29/2021 03:10:21 -80.12, -15.06 101.90 03/29/2021 03:10:00 -80.11, -15.13 101.92 1.90 21
8 03/31/2021 08:43:28 80.13, 81.61 77.26 03/31/2021 08:43:41 80.12, 81.55 77.25 1.53 13
9 04/02/2021 14:16:44 -80.13, 178.42 103.57 04/02/2021 14:17:22 -80.14, 178.30 103.56 2.88 38



Historial Predications of SNOs between NOAA-19 and TERRA
